{"data":{"norad_id":55176,"epoch":"2026-09-20T02:27:16.573824Z","epoch_age_seconds":60132,"freshness":"FRESH","line1":"1 55176U 23004AN  26263.10227516  .00000313  00000+0  84839-3 0  9997","line2":"2 55176  87.8971   2.2014 0001113 107.3516 252.7734 13.11418099178300","mean_motion":13.11418099,"eccentricity":0.0001113,"inclination_deg":87.8971,"raan_deg":2.2014,"arg_perigee_deg":107.3516,"mean_anomaly_deg":252.7734,"bstar":0.00084839,"rev_number":17830,"period_min":109.80479841616,"perigee_km":1216.8328281074,"apogee_km":1218.5236565804,"semimajor_km":7595.8152423439,"source":"CELESTRAK","updated_at":"2026-09-20T09:00:44.757905Z"}}